Location: Pasadena, ca
(34.1243°N, 118.1037°W)
Time: 18:06:08
(UTC-08:00)

N. Korean satellite - Pass Details

Date: 14 November 2017
Orbit: 460 x 515 km, 97.2° (Epoch: 18 November)

Event Time Altitude Azimuth Distance (km) Brightness Sun altitude
Rises 17:19:44 0° 142° (SE) 2,472 9.9 -6.8°
Reaches altitude 10° 17:22:00 10° 128° (SE) 1,605 8.9 -7.3°
Maximum altitude 17:24:49 24° 73° (ENE) 1,000 7.5 -7.8°
Drops below altitude 10° 17:27:41 10° 17° (NNE) 1,628 8.9 -8.4°
Sets 17:30:00 0° 4° (N) 2,517 10.0 -8.9°
